This is the latest recevied weather packets stored in our database for station/object K7NDG. If no packets are shown the sender has not sent any weather packets the latest 10 day(s).
| Time | Temp. | Humidity | Pressure | Rain* | Wind** | Luminosity | Snow |
|---|---|---|---|---|---|---|---|
| 1778024033 | 17.78° C | 67% | 1016.8 hPa | 0 mm | - | 206 W/m² | - |
| 1778023730 | 18.33° C | 67% | 1016.9 hPa | 0 mm | - | 284 W/m² | - |
| 1778023428 | 17.78° C | 68% | 1016.8 hPa | 0 mm | - | 252 W/m² | - |
| 1778023124 | 18.33° C | 68% | 1017 hPa | 0 mm | - | 206 W/m² | - |
| 1778022822 | 18.33° C | 69% | 1017 hPa | 0 mm | - | 224 W/m² | - |
| 1778022520 | 17.78° C | 69% | 1016.9 hPa | 0 mm | - | 236 W/m² | - |
| 1778022216 | 17.78° C | 69% | 1017 hPa | 0 mm | - | 262 W/m² | - |
| 1778021913 | 17.78° C | 69% | 1016.9 hPa | 0 mm | - | 257 W/m² | - |
| 1778021611 | 17.78° C | 69% | 1017 hPa | 0 mm | - | 232 W/m² | - |
| 1778021305 | 17.78° C | 70% | 1017.1 hPa | 0 mm | - | 231 W/m² | - |
| 1778021004 | 17.78° C | 71% | 1017.3 hPa | 0 mm | - | 242 W/m² | - |
| 1778020700 | 17.78° C | 69% | 1017.3 hPa | 0 mm | - | 252 W/m² | - |
| 1778020398 | 17.78° C | 69% | 1017.2 hPa | 0 mm | - | 270 W/m² | - |
| 1778020093 | 17.78° C | 71% | 1017.2 hPa | 0 mm | - | 257 W/m² | - |
| 1778019789 | 17.78° C | 72% | 1017.3 hPa | 0 mm | - | 250 W/m² | - |
| 1778019487 | 17.22° C | 71% | 1017.1 hPa | 0 mm | - | 247 W/m² | - |
| 1778019183 | 17.22° C | 70% | 1017.3 hPa | 0 mm | - | 245 W/m² | - |
| 1778018880 | 17.22° C | 71% | 1017.3 hPa | 0 mm | - | 248 W/m² | - |
| 1778018577 | 17.22° C | 72% | 1017.3 hPa | 0 mm | - | 218 W/m² | - |
| 1778018275 | 17.22° C | 72% | 1017.3 hPa | 0 mm | - | 228 W/m² | - |
| 1778017973 | 17.22° C | 71% | 1017.3 hPa | 0 mm | - | 232 W/m² | - |
| 1778017671 | 17.22° C | 72% | 1017.4 hPa | 0 mm | - | 215 W/m² | - |
| 1778017368 | 17.22° C | 72% | 1017.4 hPa | 0 mm | - | 218 W/m² | - |
| 1778017065 | 16.67° C | 72% | 1017.7 hPa | 0 mm | - | 235 W/m² | - |
| 1778016762 | 17.22° C | 71% | 1017.6 hPa | 0 mm | - | 220 W/m² | - |
* Rain latest hour (hover to see other rain measurements)
** Current wind speed in m/s (hover to see current wind gust speed)